| time (UTC) | temp F | wind direction | speed knots | gust knots | rain 1hr in | rain 24hr in | rain mn in | humidity % | barometer mb |
| 20260509113742 | 46 | 169 | 1.7 | 3.5 | 0.00 | 0.14 | 0.00 | 93 | 1008.6 |
| 20260509113242 | 46 | 169 | 0.9 | 2.6 | 0.00 | 0.14 | 0.00 | 92 | 1008.7 |
| 20260509112742 | 45 | 189 | 0.9 | 2.6 | 0.00 | 0.14 | 0.00 | 92 | 1008.8 |
| 20260509112242 | 45 | 0 | 0.9 | 2.6 | 0.00 | 0.14 | 0.00 | 92 | 1008.7 |
| 20260509112007 | 45 | 146 | 0.9 | 2.6 | 0.00 | 0.14 | 0.00 | 92 | 1008.8 |
| 20260509111242 | 45 | 0 | 0.9 | 1.7 | 0.00 | 0.14 | 0.00 | 92 | 1008.8 |
| 20260509110754 | 45 | 0 | 0.9 | 1.7 | 0.00 | 0.14 | 0.00 | 92 | 1008.7 |
| 20260509110242 | 45 | 0 | 0.9 | 1.7 | 0.00 | 0.14 | 0.00 | 92 | 1008.7 |
| 20260509105742 | 45 | 293 | 0.9 | 1.7 | 0.00 | 0.14 | 0.00 | 92 | 1008.6 |
| 20260509105242 | 44 | 0 | 0.9 | 1.7 | 0.00 | 0.14 | 0.00 | 92 | 1008.6 |
| 20260509104742 | 44 | 134 | 0.9 | 1.7 | 0.00 | 0.14 | 0.00 | 92 | 1008.6 |
| 20260509104507 | 44 | 131 | 0.9 | 1.7 | 0.00 | 0.14 | 0.00 | 93 | 1008.6 |
| 20260509103742 | 44 | 0 | 0.9 | 1.7 | 0.00 | 0.14 | 0.00 | 93 | 1008.6 |
| 20260509103238 | 44 | 132 | 0.9 | 1.7 | 0.00 | 0.14 | 0.00 | 93 | 1008.5 |
| 20260509102745 | 44 | 156 | 0.9 | 1.7 | 0.00 | 0.14 | 0.00 | 92 | 1008.5 |
| 20260509102739 | 44 | 130 | 0.9 | 1.7 | 0.00 | 0.14 | 0.00 | 92 | 1008.5 |
| 20260509102001 | 44 | 165 | 0.9 | 1.7 | 0.00 | 0.14 | 0.00 | 92 | 1008.5 |
| 20260509101239 | 44 | 138 | 0.9 | 1.7 | 0.00 | 0.14 | 0.00 | 92 | 1008.5 |
| 20260509100959 | 44 | 158 | 0.0 | 1.7 | 0.00 | 0.14 | 0.00 | 91 | 1008.6 |
| 20260509100239 | 44 | 141 | 0.0 | 0.9 | 0.00 | 0.14 | 0.00 | 91 | 1008.6 |
| 20260509100007 | 44 | 0 | 0.0 | 1.7 | 0.00 | 0.14 | 0.00 | 92 | 1008.6 |
| 20260509095239 | 44 | 0 | 0.0 | 1.7 | 0.00 | 0.14 | 0.00 | 91 | 1008.6 |
| 20260509094739 | 43 | 0 | 0.0 | 1.7 | 0.00 | 0.14 | 0.00 | 92 | 1008.6 |
| 20260509094239 | 43 | 220 | 0.0 | 1.7 | 0.00 | 0.14 | 0.00 | 92 | 1008.6 |
| 20260509094220 | 43 | 0 | 0.0 | 0.9 | 0.00 | 0.14 | 0.00 | 91 | 1008.5 |
| 20260509093240 | 43 | 0 | 0.0 | 0.9 | 0.00 | 0.14 | 0.00 | 91 | 1008.4 |
| 20260509092739 | 43 | 0 | 0.0 | 1.7 | 0.00 | 0.14 | 0.00 | 91 | 1008.4 |
| 20260509092239 | 43 | 0 | 0.0 | 1.7 | 0.00 | 0.14 | 0.00 | 91 | 1008.4 |
| 20260509091958 | 43 | 0 | 0.0 | 0.9 | 0.00 | 0.14 | 0.00 | 91 | 1008.3 |
| 20260509091239 | 43 | 0 | 0.0 | 1.7 | 0.00 | 0.14 | 0.00 | 90 | 1008.3 |
| 20260509090740 | 43 | 0 | 0.0 | 1.7 | 0.00 | 0.14 | 0.00 | 90 | 1008.4 |
| 20260509090250 | 43 | 0 | 0.0 | 1.7 | 0.00 | 0.14 | 0.00 | 90 | 1008.4 |
| 20260509085739 | 43 | 0 | 0.9 | 1.7 | 0.00 | 0.14 | 0.00 | 90 | 1008.4 |
| 20260509085240 | 43 | 164 | 0.0 | 1.7 | 0.00 | 0.14 | 0.00 | 90 | 1008.4 |
| 20260509085004 | 44 | 0 | 0.0 | 0.9 | 0.00 | 0.14 | 0.00 | 89 | 1008.6 |
| 20260509084238 | 44 | 0 | 0.0 | 0.9 | 0.00 | 0.14 | 0.00 | 89 | 1008.7 |
| 20260509084218 | 44 | 0 | 0.0 | 0.9 | 0.00 | 0.14 | 0.00 | 89 | 1008.8 |
| 20260509083234 | 44 | 165 | 0.0 | 1.7 | 0.00 | 0.14 | 0.00 | 88 | 1008.8 |
| 20260509082734 | 44 | 0 | 0.0 | 1.7 | 0.00 | 0.14 | 0.00 | 87 | 1008.9 |
| 20260509082235 | 44 | 0 | 0.0 | 1.7 | 0.00 | 0.14 | 0.00 | 87 | 1008.9 |
| 20260509081733 | 44 | 0 | 0.9 | 1.7 | 0.00 | 0.14 | 0.00 | 86 | 1009.0 |
| 20260509081229 | 44 | 183 | 0.9 | 2.6 | 0.00 | 0.14 | 0.00 | 86 | 1009.1 |
| 20260509080731 | 44 | 192 | 1.7 | 2.6 | 0.00 | 0.14 | 0.00 | 85 | 1009.1 |
| 20260509080230 | 44 | 166 | 0.9 | 2.6 | 0.00 | 0.14 | 0.00 | 84 | 1009.1 |
| 20260509080000 | 44 | 163 | 0.0 | 2.6 | 0.00 | 0.14 | 0.00 | 87 | 1009.2 |
| 20260509075230 | 44 | 0 | 0.9 | 4.3 | 0.00 | 0.14 | 0.00 | 86 | 1009.1 |
| 20260509075007 | 44 | 0 | 1.7 | 4.3 | 0.00 | 0.14 | 0.00 | 87 | 1009.2 |
| 20260509074231 | 43 | 198 | 1.7 | 3.5 | 0.00 | 0.14 | 0.00 | 88 | 1009.3 |
| 20260509073949 | 42 | 175 | 0.9 | 3.5 | 0.00 | 0.14 | 0.00 | 90 | 1009.3 |
| 20260509073230 | 42 | 180 | 0.0 | 1.7 | 0.00 | 0.14 | 0.00 | 92 | 1009.3 |
| 20260509072729 | 42 | 142 | 0.0 | 1.7 | 0.00 | 0.14 | 0.00 | 92 | 1009.4 |
| 20260509072229 | 42 | 157 | 0.0 | 1.7 | 0.00 | 0.14 | 0.00 | 92 | 1009.5 |
| 20260509071724 | 42 | 193 | 0.0 | 1.7 | 0.00 | 0.14 | 0.00 | 91 | 1009.6 |
| 20260509071223 | 42 | 0 | 0.0 | 0.9 | 0.00 | 0.14 | 0.00 | 90 | 1009.5 |
| 20260509070946 | 42 | 0 | 0.0 | 0.9 | 0.00 | 0.14 | 0.00 | 90 | 1009.5 |
| 20260509070447 | 42 | 35 | 0.0 | 0.9 | 0.00 | 0.14 | 0.00 | 90 | 1009.5 |
| 20260509065723 | 42 | 30 | 0.0 | 1.7 | 0.00 | 0.14 | 0.00 | 89 | 1009.5 |
| 20260509065222 | 42 | 218 | 0.0 | 1.7 | 0.00 | 0.14 | 0.00 | 89 | 1009.6 |
| 20260509064724 | 42 | 0 | 0.0 | 1.7 | 0.00 | 0.14 | 0.00 | 89 | 1009.6 |
| 20260509064224 | 43 | 0 | 0.9 | 1.7 | 0.00 | 0.14 | 0.00 | 88 | 1009.6 |
| 20260509063943 | 43 | 321 | 0.9 | 1.7 | 0.00 | 0.14 | 0.00 | 89 | 1009.7 |
| 20260509063216 | 43 | 334 | 0.9 | 1.7 | 0.00 | 0.14 | 0.00 | 88 | 1009.7 |
| 20260509062715 | 43 | 239 | 0.9 | 1.7 | 0.00 | 0.14 | 0.00 | 88 | 1009.8 |
| 20260509062215 | 43 | 257 | 0.9 | 1.7 | 0.00 | 0.14 | 0.00 | 88 | 1009.7 |
| 20260509061715 | 43 | 237 | 0.0 | 1.7 | 0.00 | 0.14 | 0.00 | 89 | 1009.8 |
| 20260509061215 | 43 | 0 | 0.0 | 0.9 | 0.00 | 0.14 | 0.00 | 87 | 1009.8 |
| 20260509060713 | 43 | 307 | 0.0 | 0.9 | 0.00 | 0.14 | 0.00 | 85 | 1009.8 |
| 20260509060435 | 44 | 0 | 0.0 | 0.0 | 0.00 | 0.14 | 0.00 | 84 | 1009.8 |
| 20260509055713 | 44 | 0 | 0.0 | 0.0 | 0.00 | 0.14 | 0.00 | 86 | 1009.9 |
| 20260509055213 | 44 | 0 | 0.0 | 0.0 | 0.00 | 0.14 | 0.00 | 84 | 1010.1 |
| 20260509054714 | 45 | 0 | 0.0 | 0.0 | 0.00 | 0.14 | 0.00 | 84 | 1010.1 |
| 20260509054212 | 45 | 354 | 0.0 | 1.7 | 0.00 | 0.14 | 0.00 | 83 | 1010.1 |
| 20260509053712 | 45 | 0 | 0.0 | 2.6 | 0.00 | 0.15 | 0.00 | 82 | 1010.2 |
| 20260509053214 | 45 | 0 | 0.0 | 2.6 | 0.00 | 0.15 | 0.00 | 80 | 1010.2 |
| 20260509052709 | 46 | 0 | 0.9 | 2.6 | 0.00 | 0.16 | 0.00 | 80 | 1010.3 |
| 20260509052219 | 46 | 188 | 0.9 | 3.5 | 0.00 | 0.17 | 0.00 | 81 | 1010.4 |
| 20260509051708 | 46 | 0 | 0.9 | 3.5 | 0.00 | 0.17 | 0.00 | 80 | 1010.4 |
| 20260509051206 | 45 | 0 | 0.9 | 3.5 | 0.00 | 0.17 | 0.00 | 80 | 1010.4 |
| 20260509050704 | 45 | 169 | 0.9 | 3.5 | 0.00 | 0.17 | 0.00 | 81 | 1010.5 |
| 20260509050204 | 45 | 161 | 0.9 | 3.5 | 0.00 | 0.17 | 0.00 | 80 | 1010.4 |
| 20260509045705 | 45 | 144 | 0.9 | 2.6 | 0.00 | 0.17 | 0.00 | 82 | 1010.5 |
| 20260509045203 | 44 | 165 | 0.0 | 2.6 | 0.00 | 0.17 | 0.00 | 81 | 1010.4 |
| 20260509044705 | 44 | 186 | 0.0 | 1.7 | 0.00 | 0.17 | 0.00 | 82 | 1010.5 |
| 20260509044204 | 44 | 0 | 0.0 | 1.7 | 0.00 | 0.17 | 0.00 | 81 | 1010.5 |
| 20260509043924 | 45 | 201 | 0.0 | 1.7 | 0.00 | 0.17 | 0.00 | 81 | 1010.5 |
| 20260509043204 | 45 | 0 | 0.0 | 1.7 | 0.00 | 0.17 | 0.00 | 80 | 1010.4 |
| 20260509042701 | 45 | 146 | 0.9 | 2.6 | 0.00 | 0.17 | 0.00 | 80 | 1010.4 |
| 20260509042428 | 45 | 0 | 0.9 | 2.6 | 0.00 | 0.17 | 0.00 | 79 | 1010.5 |
| 20260509041918 | 45 | 186 | 0.9 | 2.6 | 0.00 | 0.17 | 0.00 | 79 | 1010.5 |
| 20260509041431 | 44 | 163 | 0.0 | 2.6 | 0.00 | 0.17 | 0.00 | 79 | 1010.5 |
| 20260509040925 | 44 | 140 | 0.0 | 1.7 | 0.00 | 0.17 | 0.00 | 81 | 1010.6 |
| 20260509040202 | 44 | 261 | 0.0 | 1.7 | 0.00 | 0.17 | 0.00 | 79 | 1010.6 |
| 20260509035658 | 43 | 0 | 0.0 | 1.7 | 0.00 | 0.17 | 0.17 | 80 | 1010.6 |
| 20260509035201 | 43 | 193 | 0.0 | 0.9 | 0.00 | 0.17 | 0.17 | 81 | 1010.5 |
| 20260509034700 | 43 | 0 | 0.0 | 0.0 | 0.00 | 0.17 | 0.17 | 80 | 1010.5 |
| 20260509034200 | 44 | 0 | 0.0 | 0.9 | 0.00 | 0.17 | 0.17 | 80 | 1010.6 |
| 20260509033700 | 43 | 0 | 0.0 | 0.9 | 0.00 | 0.17 | 0.17 | 79 | 1010.6 |
| 20260509033201 | 43 | 0 | 0.0 | 0.0 | 0.00 | 0.17 | 0.17 | 84 | 1010.6 |
| 20260509032659 | 43 | 0 | 0.0 | 0.0 | 0.00 | 0.17 | 0.17 | 83 | 1010.6 |
| 20260509032200 | 43 | 0 | 0.0 | 0.9 | 0.00 | 0.17 | 0.17 | 83 | 1010.6 |
| 20260509032147 | 43 | 0 | 0.0 | 0.9 | 0.00 | 0.17 | 0.17 | 82 | 1010.6 |
| 20260509031159 | 44 | 0 | 0.0 | 0.0 | 0.00 | 0.17 | 0.17 | 83 | 1010.6 |
| 20260509030658 | 44 | 0 | 0.0 | 0.9 | 0.00 | 0.17 | 0.17 | 81 | 1010.5 |
| 20260509030158 | 44 | 197 | 0.0 | 0.9 | 0.00 | 0.17 | 0.17 | 82 | 1010.6 |
| 20260509025657 | 45 | 0 | 0.0 | 0.9 | 0.00 | 0.17 | 0.17 | 78 | 1010.6 |
| 20260509025156 | 45 | 0 | 0.0 | 0.9 | 0.00 | 0.17 | 0.17 | 77 | 1010.6 |
| 20260509024658 | 45 | 127 | 0.0 | 0.9 | 0.00 | 0.17 | 0.17 | 75 | 1010.6 |
| 20260509024157 | 45 | 0 | 0.0 | 0.9 | 0.00 | 0.17 | 0.17 | 76 | 1010.7 |
| 20260509023919 | 45 | 118 | 0.0 | 0.9 | 0.00 | 0.17 | 0.17 | 78 | 1010.7 |
| 20260509023158 | 46 | 0 | 0.0 | 0.0 | 0.00 | 0.17 | 0.17 | 77 | 1010.8 |
| 20260509022657 | 46 | 0 | 0.0 | 0.9 | 0.00 | 0.17 | 0.17 | 77 | 1010.8 |
| 20260509022158 | 46 | 0 | 0.0 | 0.9 | 0.00 | 0.17 | 0.17 | 75 | 1010.8 |
| 20260509021658 | 46 | 0 | 0.0 | 0.9 | 0.00 | 0.17 | 0.17 | 75 | 1010.8 |
| 20260509021159 | 46 | 0 | 0.0 | 0.9 | 0.00 | 0.17 | 0.17 | 75 | 1010.8 |
| 20260509020917 | 46 | 0 | 0.0 | 0.0 | 0.00 | 0.17 | 0.17 | 73 | 1010.8 |
| 20260509020158 | 47 | 0 | 0.0 | 0.0 | 0.00 | 0.17 | 0.17 | 73 | 1010.8 |
| 20260509015658 | 47 | 0 | 0.0 | 0.9 | 0.00 | 0.17 | 0.17 | 72 | 1010.8 |
| 20260509015156 | 47 | 0 | 0.0 | 0.9 | 0.00 | 0.17 | 0.17 | 74 | 1010.7 |
| 20260509014931 | 47 | 0 | 0.0 | 0.0 | 0.00 | 0.17 | 0.17 | 73 | 1010.7 |
| 20260509014413 | 47 | 0 | 0.0 | 0.0 | 0.00 | 0.17 | 0.17 | 73 | 1010.7 |
| 20260509013654 | 47 | 0 | 0.0 | 0.0 | 0.00 | 0.17 | 0.17 | 73 | 1010.6 |
| 20260509013154 | 47 | 0 | 0.0 | 0.9 | 0.00 | 0.17 | 0.17 | 72 | 1010.6 |
| 20260509012654 | 48 | 0 | 0.0 | 1.7 | 0.00 | 0.17 | 0.17 | 71 | 1010.5 |
| 20260509012152 | 48 | 29 | 0.0 | 1.7 | 0.00 | 0.17 | 0.17 | 71 | 1010.4 |
| 20260509011653 | 49 | 18 | 0.0 | 0.9 | 0.00 | 0.17 | 0.17 | 68 | 1010.4 |
| 20260509011152 | 49 | 0 | 0.0 | 0.0 | 0.00 | 0.17 | 0.17 | 66 | 1010.3 |
| 20260509010653 | 49 | 0 | 0.0 | 0.9 | 0.00 | 0.17 | 0.17 | 64 | 1010.2 |
| 20260509010152 | 49 | 0 | 0.0 | 0.9 | 0.00 | 0.17 | 0.17 | 63 | 1010.1 |
| 20260509005652 | 50 | 0 | 0.0 | 0.9 | 0.00 | 0.17 | 0.17 | 62 | 1010.0 |
| 20260509005154 | 50 | 0 | 0.0 | 0.9 | 0.00 | 0.17 | 0.17 | 61 | 1009.9 |
| 20260509004650 | 50 | 0 | 0.0 | 0.9 | 0.00 | 0.17 | 0.17 | 60 | 1009.9 |
| 20260509004151 | 51 | 0 | 0.0 | 0.9 | 0.00 | 0.17 | 0.17 | 59 | 1009.8 |
| 20260509003649 | 51 | 0 | 0.0 | 0.9 | 0.00 | 0.17 | 0.17 | 58 | 1009.8 |
| 20260509003149 | 51 | 0 | 0.0 | 0.9 | 0.00 | 0.17 | 0.17 | 57 | 1009.8 |
| 20260509002650 | 51 | 0 | 0.0 | 1.7 | 0.00 | 0.17 | 0.17 | 55 | 1009.7 |
| 20260509002149 | 51 | 0 | 0.0 | 1.7 | 0.00 | 0.17 | 0.17 | 54 | 1009.7 |
| 20260509001917 | 52 | 152 | 0.0 | 1.7 | 0.00 | 0.17 | 0.17 | 59 | 1009.7 |
| 20260509001148 | 53 | 161 | 0.0 | 1.7 | 0.00 | 0.17 | 0.17 | 54 | 1009.7 |
| 20260509000914 | 53 | 0 | 0.0 | 0.9 | 0.00 | 0.17 | 0.17 | 51 | 1009.6 |
| 20260509000148 | 53 | 149 | 0.0 | 0.9 | 0.00 | 0.17 | 0.17 | 49 | 1009.6 |
| 20260508235907 | 54 | 138 | 0.0 | 1.7 | 0.00 | 0.17 | 0.17 | 47 | 1009.5 |
| 20260508235144 | 54 | 0 | 0.0 | 1.7 | 0.00 | 0.17 | 0.17 | 47 | 1009.5 |
| 20260508234644 | 55 | 2 | 0.9 | 2.6 | 0.00 | 0.17 | 0.17 | 46 | 1009.4 |
| 20260508234142 | 55 | 262 | 1.7 | 3.5 | 0.00 | 0.17 | 0.17 | 45 | 1009.4 |
| 20260508233643 | 56 | 12 | 1.7 | 3.5 | 0.00 | 0.17 | 0.17 | 43 | 1009.3 |
| 20260508233143 | 56 | 24 | 0.9 | 3.5 | 0.00 | 0.17 | 0.17 | 42 | 1009.3 |
| 20260508232643 | 56 | 320 | 0.9 | 4.3 | 0.00 | 0.17 | 0.17 | 42 | 1009.3 |
| 20260508232142 | 56 | 0 | 1.7 | 4.3 | 0.00 | 0.17 | 0.17 | 42 | 1009.3 |
| 20260508231638 | 57 | 357 | 1.7 | 3.5 | 0.00 | 0.17 | 0.17 | 41 | 1009.3 |
| 20260508231137 | 57 | 340 | 1.7 | 4.3 | 0.00 | 0.17 | 0.17 | 42 | 1009.3 |
| 20260508230633 | 57 | 38 | 1.7 | 5.2 | 0.00 | 0.17 | 0.17 | 40 | 1009.3 |
| 20260508230133 | 58 | 314 | 1.7 | 5.2 | 0.00 | 0.17 | 0.17 | 41 | 1009.3 |
| 20260508225854 | 58 | 0 | 1.7 | 5.2 | 0.00 | 0.17 | 0.17 | 40 | 1009.3 |
| 20260508225131 | 57 | 30 | 1.7 | 5.2 | 0.00 | 0.17 | 0.17 | 40 | 1009.3 |
| 20260508224856 | 57 | 359 | 1.7 | 5.2 | 0.00 | 0.17 | 0.17 | 39 | 1009.3 |
| 20260508224407 | 56 | 352 | 2.6 | 7.0 | 0.00 | 0.17 | 0.17 | 41 | 1009.3 |
| 20260508223631 | 56 | 270 | 2.6 | 7.0 | 0.00 | 0.17 | 0.17 | 42 | 1009.3 |
| 20260508223400 | 57 | 358 | 1.7 | 5.2 | 0.00 | 0.17 | 0.17 | 40 | 1009.3 |
| 20260508222631 | 58 | 23 | 1.7 | 7.0 | 0.00 | 0.17 | 0.17 | 40 | 1009.3 |
| 20260508222132 | 58 | 348 | 1.7 | 7.0 | 0.00 | 0.17 | 0.17 | 42 | 1009.3 |
| 20260508221633 | 58 | 26 | 1.7 | 7.8 | 0.00 | 0.17 | 0.17 | 39 | 1009.3 |
| 20260508221132 | 57 | 3 | 2.6 | 7.8 | 0.00 | 0.17 | 0.17 | 41 | 1009.4 |
| 20260508220628 | 57 | 48 | 1.7 | 6.1 | 0.00 | 0.17 | 0.17 | 44 | 1009.5 |
| 20260508220353 | 57 | 60 | 1.7 | 6.1 | 0.00 | 0.17 | 0.17 | 44 | 1009.5 |
| 20260508215627 | 57 | 39 | 2.6 | 6.1 | 0.00 | 0.17 | 0.17 | 42 | 1009.5 |
| 20260508215126 | 57 | 61 | 2.6 | 7.0 | 0.00 | 0.17 | 0.17 | 44 | 1009.5 |
| 20260508214629 | 58 | 178 | 2.6 | 7.0 | 0.00 | 0.17 | 0.17 | 43 | 1009.6 |
| 20260508214619 | 58 | 0 | 2.6 | 5.2 | 0.00 | 0.17 | 0.17 | 42 | 1009.6 |
| 20260508213627 | 58 | 338 | 1.7 | 5.2 | 0.00 | 0.17 | 0.17 | 42 | 1009.6 |
| 20260508213127 | 58 | 25 | 1.7 | 7.8 | 0.00 | 0.17 | 0.17 | 41 | 1009.6 |
| 20260508212627 | 57 | 25 | 2.6 | 7.8 | 0.00 | 0.17 | 0.17 | 42 | 1009.7 |
| 20260508212127 | 57 | 4 | 3.5 | 8.7 | 0.00 | 0.17 | 0.17 | 41 | 1009.7 |
| 20260508211626 | 57 | 300 | 3.5 | 8.7 | 0.00 | 0.17 | 0.17 | 42 | 1009.7 |
| 20260508211124 | 57 | 33 | 3.5 | 7.8 | 0.00 | 0.17 | 0.17 | 44 | 1009.6 |
| 20260508210623 | 56 | 117 | 2.6 | 7.8 | 0.00 | 0.17 | 0.17 | 45 | 1009.7 |
| 20260508210121 | 56 | 156 | 2.6 | 7.8 | 0.00 | 0.17 | 0.17 | 46 | 1009.8 |
| 20260508205621 | 56 | 353 | 3.5 | 7.8 | 0.00 | 0.17 | 0.17 | 45 | 1009.8 |
| 20260508205121 | 56 | 35 | 4.3 | 8.7 | 0.00 | 0.17 | 0.17 | 46 | 1009.8 |
| 20260508204621 | 57 | 311 | 3.5 | 8.7 | 0.00 | 0.17 | 0.17 | 45 | 1009.8 |
| 20260508204338 | 58 | 42 | 2.6 | 7.0 | 0.00 | 0.17 | 0.17 | 44 | 1009.9 |
| 20260508203621 | 58 | 270 | 2.6 | 7.0 | 0.00 | 0.17 | 0.17 | 42 | 1010.0 |
| 20260508203122 | 58 | 215 | 2.6 | 7.0 | 0.00 | 0.17 | 0.17 | 43 | 1010.1 |
| 20260508202839 | 57 | 20 | 2.6 | 6.1 | 0.00 | 0.17 | 0.17 | 45 | 1010.1 |
| 20260508202121 | 57 | 251 | 2.6 | 6.1 | 0.00 | 0.17 | 0.17 | 44 | 1010.1 |
| 20260508201622 | 57 | 313 | 1.7 | 6.1 | 0.00 | 0.17 | 0.17 | 44 | 1010.2 |
| 20260508201122 | 56 | 260 | 2.6 | 7.0 | 0.00 | 0.17 | 0.17 | 46 | 1010.2 |
| 20260508200622 | 56 | 201 | 2.6 | 7.0 | 0.00 | 0.17 | 0.17 | 45 | 1010.2 |
| 20260508200118 | 55 | 147 | 2.6 | 7.0 | 0.00 | 0.17 | 0.17 | 47 | 1010.2 |
| 20260508195618 | 54 | 142 | 3.5 | 11.3 | 0.00 | 0.17 | 0.17 | 50 | 1010.4 |
| 20260508195117 | 54 | 330 | 3.5 | 11.3 | 0.00 | 0.17 | 0.17 | 51 | 1010.5 |
| 20260508194616 | 55 | 276 | 2.6 | 8.7 | 0.00 | 0.17 | 0.17 | 50 | 1010.6 |
| 20260508194117 | 55 | 77 | 1.7 | 7.8 | 0.00 | 0.17 | 0.17 | 47 | 1010.6 |
| 20260508193613 | 54 | 269 | 2.6 | 7.8 | 0.00 | 0.17 | 0.17 | 48 | 1010.6 |
| 20260508193339 | 54 | 261 | 1.7 | 6.1 | 0.00 | 0.17 | 0.17 | 50 | 1010.8 |
| 20260508192612 | 54 | 0 | 1.7 | 6.1 | 0.00 | 0.17 | 0.17 | 52 | 1010.8 |
| 20260508192112 | 54 | 334 | 1.7 | 7.0 | 0.00 | 0.17 | 0.17 | 50 | 1010.8 |
| 20260508191612 | 54 | 254 | 2.6 | 7.8 | 0.00 | 0.17 | 0.17 | 51 | 1010.8 |
| 20260508191113 | 54 | 299 | 3.5 | 7.8 | 0.00 | 0.17 | 0.17 | 53 | 1010.8 |
| 20260508190613 | 54 | 315 | 3.5 | 7.8 | 0.00 | 0.17 | 0.17 | 52 | 1010.7 |
| 20260508190113 | 54 | 304 | 2.6 | 7.0 | 0.00 | 0.17 | 0.17 | 53 | 1010.7 |
| 20260508185612 | 55 | 237 | 1.7 | 7.0 | 0.00 | 0.17 | 0.17 | 53 | 1010.7 |
| 20260508185112 | 54 | 312 | 2.6 | 7.8 | 0.00 | 0.17 | 0.17 | 55 | 1010.8 |
| 20260508184611 | 54 | 309 | 3.5 | 9.6 | 0.00 | 0.17 | 0.17 | 55 | 1010.9 |
| 20260508184111 | 54 | 348 | 2.6 | 9.6 | 0.00 | 0.17 | 0.17 | 52 | 1010.9 |
| 20260508183612 | 52 | 237 | 2.6 | 7.8 | 0.00 | 0.17 | 0.17 | 56 | 1010.9 |
| 20260508183111 | 52 | 326 | 3.5 | 7.8 | 0.00 | 0.17 | 0.17 | 60 | 1011.0 |
| 20260508182835 | 52 | 309 | 2.6 | 7.8 | 0.00 | 0.17 | 0.17 | 60 | 1011.1 |
| 20260508182112 | 52 | 356 | 1.7 | 7.0 | 0.00 | 0.17 | 0.17 | 59 | 1011.1 |
| 20260508181612 | 51 | 0 | 3.5 | 7.8 | 0.00 | 0.17 | 0.17 | 61 | 1011.2 |
| 20260508181112 | 51 | 242 | 4.3 | 7.8 | 0.00 | 0.17 | 0.17 | 61 | 1011.3 |
| 20260508180608 | 51 | 45 | 3.5 | 7.8 | 0.00 | 0.17 | 0.17 | 64 | 1011.3 |
| 20260508180331 | 50 | 209 | 2.6 | 7.8 | 0.00 | 0.17 | 0.17 | 66 | 1011.4 |
| 20260508175830 | 50 | 253 | 3.5 | 7.8 | 0.00 | 0.17 | 0.17 | 66 | 1011.4 |
| 20260508175108 | 50 | 237 | 3.5 | 7.8 | 0.00 | 0.17 | 0.17 | 66 | 1011.4 |
| 20260508174608 | 50 | 276 | 3.5 | 7.8 | 0.00 | 0.17 | 0.17 | 69 | 1011.4 |
| 20260508174108 | 50 | 198 | 3.5 | 9.6 | 0.00 | 0.17 | 0.17 | 69 | 1011.5 |
| 20260508173608 | 51 | 225 | 3.5 | 9.6 | 0.00 | 0.17 | 0.17 | 69 | 1011.5 |
| 20260508173108 | 51 | 248 | 3.5 | 9.6 | 0.00 | 0.17 | 0.17 | 71 | 1011.6 |
| 20260508172608 | 50 | 267 | 3.5 | 9.6 | 0.00 | 0.17 | 0.17 | 71 | 1011.5 |
| 20260508172108 | 50 | 200 | 3.5 | 8.7 | 0.00 | 0.17 | 0.17 | 71 | 1011.6 |
| 20260508171609 | 49 | 217 | 4.3 | 8.7 | 0.00 | 0.17 | 0.17 | 70 | 1011.7 |
| 20260508171109 | 49 | 261 | 4.3 | 8.7 | 0.00 | 0.17 | 0.17 | 73 | 1011.7 |
| 20260508170610 | 49 | 280 | 3.5 | 9.6 | 0.00 | 0.17 | 0.17 | 76 | 1011.8 |
| 20260508170114 | 49 | 236 | 3.5 | 9.6 | 0.00 | 0.17 | 0.17 | 74 | 1011.9 |
| 20260508165607 | 48 | 230 | 4.3 | 9.6 | 0.00 | 0.17 | 0.17 | 78 | 1012.0 |
| 20260508165333 | 48 | 270 | 4.3 | 9.6 | 0.00 | 0.17 | 0.17 | 75 | 1012.0 |
| 20260508164607 | 47 | 250 | 4.3 | 10.4 | 0.00 | 0.17 | 0.17 | 76 | 1012.0 |
| 20260508164107 | 47 | 239 | 5.2 | 10.4 | 0.00 | 0.17 | 0.17 | 75 | 1012.1 |
| 20260508163607 | 47 | 290 | 4.3 | 7.8 | 0.00 | 0.17 | 0.17 | 78 | 1012.1 |
| 20260508163109 | 47 | 190 | 3.5 | 7.8 | 0.00 | 0.17 | 0.17 | 78 | 1012.1 |
| 20260508162827 | 47 | 232 | 3.5 | 7.8 | 0.00 | 0.17 | 0.17 | 78 | 1012.1 |
| 20260508162107 | 47 | 223 | 3.5 | 8.7 | 0.00 | 0.17 | 0.17 | 79 | 1012.1 |
| 20260508161619 | 47 | 249 | 3.5 | 8.7 | 0.00 | 0.17 | 0.17 | 80 | 1012.2 |
| 20260508161108 | 46 | 229 | 3.5 | 7.8 | 0.00 | 0.17 | 0.17 | 81 | 1012.2 |
| 20260508160608 | 47 | 246 | 3.5 | 7.8 | 0.00 | 0.17 | 0.17 | 81 | 1012.2 |
| 20260508160116 | 47 | 224 | 2.6 | 7.0 | 0.00 | 0.17 | 0.17 | 83 | 1012.3 |
| 20260508155605 | 46 | 254 | 2.6 | 7.0 | 0.00 | 0.17 | 0.17 | 85 | 1012.3 |
| 20260508155104 | 46 | 186 | 2.6 | 6.1 | 0.00 | 0.17 | 0.17 | 86 | 1012.3 |
| 20260508154606 | 45 | 254 | 1.7 | 5.2 | 0.00 | 0.17 | 0.17 | 87 | 1012.3 |
| 20260508154104 | 46 | 88 | 1.7 | 4.3 | 0.00 | 0.17 | 0.17 | 87 | 1012.3 |
| 20260508153602 | 46 | 150 | 1.7 | 3.5 | 0.00 | 0.17 | 0.17 | 86 | 1012.3 |
| 20260508153102 | 45 | 70 | 0.9 | 4.3 | 0.00 | 0.17 | 0.17 | 90 | 1012.3 |
| 20260508152604 | 45 | 225 | 1.7 | 4.3 | 0.00 | 0.17 | 0.17 | 91 | 1012.3 |
| 20260508152102 | 45 | 206 | 1.7 | 4.3 | 0.00 | 0.17 | 0.17 | 91 | 1012.3 |
| 20260508151602 | 44 | 187 | 1.7 | 4.3 | 0.00 | 0.17 | 0.17 | 93 | 1012.3 |
| 20260508151103 | 44 | 209 | 1.7 | 4.3 | 0.00 | 0.17 | 0.17 | 92 | 1012.4 |
| 20260508150613 | 44 | 156 | 1.7 | 3.5 | 0.00 | 0.17 | 0.17 | 96 | 1012.5 |
| 20260508150328 | 43 | 175 | 1.7 | 3.5 | 0.00 | 0.17 | 0.17 | 94 | 1012.5 |
| 20260508145600 | 42 | 174 | 1.7 | 3.5 | 0.00 | 0.17 | 0.17 | 96 | 1012.4 |
| 20260508145100 | 42 | 206 | 1.7 | 3.5 | 0.00 | 0.17 | 0.17 | 99 | 1012.4 |
| 20260508144600 | 41 | 134 | 1.7 | 3.5 | 0.00 | 0.17 | 0.17 | 98 | 1012.5 |
| 20260508144100 | 41 | 151 | 1.7 | 2.6 | 0.01 | 0.17 | 0.17 | 99 | 1012.5 |
| 20260508143600 | 41 | 46 | 1.7 | 2.6 | 0.01 | 0.17 | 0.17 | 99 | 1012.6 |
| 20260508143100 | 41 | 48 | 1.7 | 3.5 | 0.01 | 0.17 | 0.17 | 99 | 1012.6 |
| 20260508142556 | 41 | 332 | 1.7 | 3.5 | 0.02 | 0.17 | 0.17 | 99 | 1012.6 |
| 20260508142055 | 41 | 141 | 1.7 | 3.5 | 0.04 | 0.17 | 0.17 | 99 | 1012.6 |
| 20260508142036 | 41 | 17 | 1.7 | 3.5 | 0.06 | 0.17 | 0.17 | 99 | 1012.7 |
| 20260508141051 | 40 | 0 | 0.9 | 3.5 | 0.07 | 0.17 | 0.17 | 98 | 1012.6 |
| 20260508140552 | 41 | 34 | 0.9 | 2.6 | 0.08 | 0.17 | 0.17 | 98 | 1012.5 |
| 20260508140104 | 40 | 0 | 1.7 | 3.5 | 0.10 | 0.17 | 0.17 | 98 | 1012.5 |
| 20260508135551 | 40 | 37 | 1.7 | 3.5 | 0.12 | 0.17 | 0.17 | 97 | 1012.5 |
| 20260508135052 | 41 | 76 | 1.7 | 4.3 | 0.12 | 0.17 | 0.17 | 99 | 1012.5 |
| 20260508134552 | 41 | 28 | 2.6 | 6.1 | 0.12 | 0.17 | 0.17 | 99 | 1012.5 |
| 20260508134320 | 41 | 24 | 1.7 | 6.1 | 0.13 | 0.16 | 0.16 | 97 | 1012.4 |
| 20260508134045 | 41 | 16 | 0.9 | 4.3 | 0.13 | 0.16 | 0.16 | 98 | 1012.4 |
| 20260508133315 | 41 | 0 | 1.7 | 7.0 | 0.13 | 0.16 | 0.16 | 97 | 1012.5 |
| 20260508132546 | 41 | 334 | 2.6 | 7.8 | 0.12 | 0.15 | 0.15 | 96 | 1012.5 |
| 20260508132047 | 41 | 296 | 2.6 | 7.8 | 0.10 | 0.13 | 0.13 | 94 | 1012.5 |
| 20260508131547 | 42 | 324 | 2.6 | 5.2 | 0.08 | 0.11 | 0.11 | 96 | 1012.5 |
| 20260508131046 | 42 | 329 | 1.7 | 4.3 | 0.07 | 0.09 | 0.09 | 95 | 1012.5 |
| 20260508130546 | 42 | 347 | 1.7 | 6.1 | 0.06 | 0.09 | 0.09 | 97 | 1012.3 |
| 20260508130324 | 43 | 275 | 1.7 | 6.1 | 0.04 | 0.07 | 0.07 | 98 | 1012.2 |
| 20260508125547 | 43 | 242 | 1.7 | 3.5 | 0.02 | 0.05 | 0.06 | 99 | 1012.1 |
| 20260508125046 | 43 | 0 | 1.7 | 3.5 | 0.02 | 0.05 | 0.05 | 99 | 1012.0 |
| 20260508124548 | 43 | 274 | 1.7 | 3.5 | 0.02 | 0.04 | 0.04 | 99 | 1011.9 |
| 20260508124047 | 43 | 293 | 1.7 | 3.5 | 0.01 | 0.04 | 0.04 | 98 | 1011.8 |
| 20260508123804 | 43 | 279 | 1.7 | 3.5 | 0.00 | 0.03 | 0.03 | 97 | 1011.7 |
| 20260508123312 | 43 | 262 | 1.7 | 3.5 | 0.00 | 0.03 | 0.03 | 98 | 1011.6 |
| 20260508122545 | 43 | 241 | 1.7 | 3.5 | 0.00 | 0.03 | 0.03 | 97 | 1011.5 |
| 20260508122041 | 43 | 254 | 1.7 | 3.5 | 0.00 | 0.03 | 0.03 | 97 | 1011.4 |
| 20260508121541 | 43 | 276 | 1.7 | 3.5 | 0.00 | 0.03 | 0.03 | 97 | 1011.3 |
| 20260508121041 | 43 | 233 | 0.9 | 3.5 | 0.00 | 0.03 | 0.03 | 97 | 1011.3 |
| 20260508120811 | 43 | 327 | 0.9 | 1.7 | 0.00 | 0.03 | 0.03 | 98 | 1011.2 |
| 20260508120054 | 43 | 269 | 0.9 | 1.7 | 0.00 | 0.03 | 0.03 | 99 | 1011.1 |
| 20260508115541 | 42 | 177 | 0.9 | 1.7 | 0.00 | 0.03 | 0.03 | 99 | 1011.0 |
| 20260508115042 | 42 | 197 | 0.0 | 1.7 | 0.00 | 0.03 | 0.03 | 100 | 1010.9 |
| 20260508114542 | 42 | 112 | 0.0 | 1.7 | 0.00 | 0.03 | 0.03 | 99 | 1010.8 |
| 20260508114043 | 42 | 40 | 0.9 | 4.3 | 0.00 | 0.03 | 0.03 | 100 | 1010.9 |